Orbital Elements at Epoch 2453074.5 (2004-Mar-10.0) TDB
Reference: JPL 26 (heliocentric ecliptic J2000)
Element | Value | Uncertainty (1-sigma) | Units |
e | .4313134844133996 | 6.9377e-07 | |
a | 3.781497663461639 | 1.2818e-07 | au |
q | 2.15048672993287 | 2.6174e-06 | au |
i | 19.37778697740428 | 9.3161e-05 | deg |
node | 24.36812233729123 | 0.00012834 | deg |
peri | 11.59882874227125 | 0.00094911 | deg |
M | 168.0303354448991 | 0.00031877 | deg |
tp | 2451820.841137815173 (2000-Oct-03.34113782) | 0.0024087 | TDB |
period | 2685.926854764476 7.35 | 0.00013657 3.739e-07 | d yr |
n | .134031944824338 | 6.8149e-09 | deg/d |
Q | 5.412508596990408 | 1.8347e-07 | au |
|
| | Orbit Determination Parameters
Additional Information
|